| time (UTC) | temp F | wind direction | speed MPH | gust MPH | rain 1hr in | rain 24hr in | rain mn in | humidity % | barometer mb |
| 20260507191509 | 64 | 252 | 6.0 | 15.0 | 0.00 | 0.25 | 0.01 | 33 | 1006.0 |
| 20260507191007 | 65 | 310 | 4.0 | 12.0 | 0.00 | 0.25 | 0.01 | 39 | 1006.0 |
| 20260507190508 | 63 | 332 | 6.0 | 16.0 | 0.00 | 0.25 | 0.01 | 40 | 1006.2 |
| 20260507190007 | 62 | 260 | 7.0 | 16.0 | 0.00 | 0.25 | 0.01 | 38 | 1006.2 |
| 20260507185506 | 61 | 268 | 2.0 | 13.0 | 0.00 | 0.26 | 0.01 | 42 | 1006.3 |
| 20260507185007 | 62 | 310 | 5.0 | 13.0 | 0.00 | 0.26 | 0.01 | 39 | 1006.4 |
| 20260507184508 | 64 | 291 | 4.0 | 14.0 | 0.00 | 0.26 | 0.01 | 39 | 1006.4 |
| 20260507184007 | 64 | 110 | 2.0 | 14.0 | 0.00 | 0.26 | 0.01 | 39 | 1006.4 |
| 20260507183509 | 64 | 227 | 5.0 | 12.0 | 0.00 | 0.26 | 0.01 | 38 | 1006.3 |
| 20260507183011 | 64 | 241 | 4.0 | 14.0 | 0.00 | 0.26 | 0.01 | 43 | 1006.4 |
| 20260507182506 | 62 | 249 | 4.0 | 14.0 | 0.00 | 0.26 | 0.01 | 39 | 1006.5 |
| 20260507182007 | 64 | 258 | 7.0 | 14.0 | 0.00 | 0.26 | 0.01 | 39 | 1006.4 |
| 20260507181505 | 63 | 282 | 7.0 | 13.0 | 0.00 | 0.26 | 0.01 | 38 | 1006.4 |
| 20260507181009 | 63 | 275 | 6.0 | 11.0 | 0.00 | 0.26 | 0.01 | 41 | 1006.5 |
| 20260507180505 | 65 | 274 | 5.0 | 16.0 | 0.00 | 0.26 | 0.01 | 36 | 1006.5 |
| 20260507180004 | 65 | 285 | 2.0 | 15.0 | 0.00 | 0.26 | 0.01 | 40 | 1006.5 |
| 20260507175503 | 64 | 272 | 7.0 | 15.0 | 0.00 | 0.26 | 0.01 | 39 | 1006.5 |
| 20260507175003 | 63 | 274 | 4.0 | 13.0 | 0.00 | 0.26 | 0.01 | 39 | 1006.4 |
| 20260507174502 | 62 | 270 | 6.0 | 13.0 | 0.00 | 0.26 | 0.01 | 41 | 1006.5 |
| 20260507174003 | 62 | 248 | 7.0 | 18.0 | 0.00 | 0.26 | 0.01 | 40 | 1006.3 |
| 20260507173502 | 62 | 272 | 8.0 | 18.0 | 0.00 | 0.26 | 0.01 | 42 | 1006.5 |
| 20260507173005 | 63 | 239 | 4.0 | 14.0 | 0.00 | 0.26 | 0.01 | 45 | 1006.3 |
| 20260507172502 | 61 | 332 | 6.0 | 16.0 | 0.00 | 0.26 | 0.01 | 41 | 1006.4 |
| 20260507172000 | 62 | 251 | 7.0 | 17.0 | 0.00 | 0.26 | 0.01 | 42 | 1006.5 |
| 20260507171606 | 62 | 239 | 9.0 | 17.0 | 0.00 | 0.26 | 0.01 | 41 | 1006.5 |
| 20260507171100 | 63 | 256 | 9.0 | 17.0 | 0.00 | 0.26 | 0.01 | 40 | 1006.6 |
| 20260507170559 | 61 | 270 | 4.0 | 18.0 | 0.00 | 0.26 | 0.01 | 40 | 1006.7 |
| 20260507170104 | 62 | 253 | 6.0 | 19.0 | 0.00 | 0.26 | 0.01 | 41 | 1006.7 |
| 20260507165557 | 62 | 335 | 7.0 | 19.0 | 0.00 | 0.26 | 0.01 | 41 | 1006.6 |
| 20260507165200 | 62 | 308 | 7.0 | 19.0 | 0.00 | 0.26 | 0.01 | 42 | 1006.9 |
| 20260507164604 | 62 | 283 | 7.0 | 16.0 | 0.00 | 0.26 | 0.01 | 42 | 1006.9 |
| 20260507164057 | 61 | 226 | 4.0 | 15.0 | 0.00 | 0.26 | 0.01 | 49 | 1006.8 |
| 20260507163557 | 61 | 196 | 6.0 | 15.0 | 0.00 | 0.26 | 0.01 | 47 | 1006.9 |
| 20260507163056 | 61 | 272 | 8.0 | 16.0 | 0.00 | 0.26 | 0.01 | 43 | 1006.9 |
| 20260507162554 | 62 | 201 | 8.0 | 16.0 | 0.00 | 0.26 | 0.01 | 47 | 1006.9 |
| 20260507162053 | 61 | 247 | 4.0 | 11.0 | 0.00 | 0.26 | 0.01 | 46 | 1006.9 |
| 20260507161555 | 61 | 226 | 2.0 | 16.0 | 0.00 | 0.26 | 0.01 | 48 | 1006.9 |
| 20260507161052 | 59 | 241 | 7.0 | 11.0 | 0.00 | 0.26 | 0.01 | 49 | 1007.1 |
| 20260507160552 | 59 | 257 | 6.0 | 16.0 | 0.00 | 0.26 | 0.01 | 54 | 1007.1 |
| 20260507160055 | 58 | 253 | 6.0 | 17.0 | 0.00 | 0.26 | 0.01 | 53 | 1007.2 |
| 20260507155550 | 60 | 260 | 9.0 | 17.0 | 0.00 | 0.26 | 0.01 | 54 | 1007.2 |
| 20260507155050 | 59 | 308 | 6.0 | 17.0 | 0.00 | 0.26 | 0.01 | 56 | 1007.2 |
| 20260507154553 | 59 | 228 | 6.0 | 13.0 | 0.00 | 0.26 | 0.01 | 56 | 1007.3 |
| 20260507154048 | 58 | 274 | 1.0 | 12.0 | 0.00 | 0.26 | 0.01 | 62 | 1007.3 |
| 20260507153549 | 58 | 274 | 3.0 | 12.0 | 0.00 | 0.26 | 0.01 | 60 | 1007.5 |
| 20260507153048 | 58 | 271 | 5.0 | 13.0 | 0.00 | 0.26 | 0.01 | 60 | 1007.5 |
| 20260507152548 | 59 | 258 | 3.0 | 13.0 | 0.00 | 0.26 | 0.01 | 61 | 1007.6 |
| 20260507152048 | 58 | 270 | 5.0 | 11.0 | 0.00 | 0.26 | 0.01 | 60 | 1007.6 |
| 20260507151547 | 57 | 239 | 5.0 | 11.0 | 0.00 | 0.26 | 0.01 | 60 | 1007.7 |
| 20260507151046 | 58 | 262 | 3.0 | 12.0 | 0.00 | 0.26 | 0.01 | 60 | 1007.8 |
| 20260507150547 | 57 | 264 | 5.0 | 12.0 | 0.00 | 0.26 | 0.01 | 60 | 1007.7 |
| 20260507150046 | 57 | 256 | 3.0 | 13.0 | 0.00 | 0.26 | 0.01 | 60 | 1007.7 |
| 20260507145545 | 56 | 245 | 4.0 | 13.0 | 0.00 | 0.26 | 0.01 | 59 | 1007.8 |
| 20260507145046 | 57 | 203 | 5.0 | 12.0 | 0.00 | 0.26 | 0.01 | 61 | 1007.9 |
| 20260507144546 | 58 | 225 | 4.0 | 12.0 | 0.00 | 0.26 | 0.01 | 58 | 1007.9 |
| 20260507144048 | 59 | 293 | 4.0 | 15.0 | 0.00 | 0.26 | 0.01 | 58 | 1007.9 |
| 20260507143548 | 58 | 220 | 6.0 | 15.0 | 0.00 | 0.26 | 0.01 | 59 | 1007.8 |
| 20260507143042 | 59 | 274 | 5.0 | 13.0 | 0.00 | 0.26 | 0.01 | 57 | 1007.8 |
| 20260507142541 | 59 | 243 | 7.0 | 13.0 | 0.00 | 0.26 | 0.01 | 57 | 1007.7 |
| 20260507142039 | 59 | 238 | 3.0 | 13.0 | 0.00 | 0.26 | 0.01 | 58 | 1007.7 |
| 20260507141542 | 58 | 235 | 5.0 | 13.0 | 0.00 | 0.26 | 0.01 | 58 | 1007.7 |
| 20260507141037 | 58 | 232 | 4.0 | 10.0 | 0.00 | 0.26 | 0.01 | 56 | 1007.7 |
| 20260507140535 | 58 | 312 | 3.0 | 13.0 | 0.00 | 0.26 | 0.01 | 61 | 1007.7 |
| 20260507140035 | 57 | 234 | 5.0 | 13.0 | 0.00 | 0.26 | 0.01 | 58 | 1007.7 |
| 20260507135534 | 57 | 262 | 7.0 | 12.0 | 0.00 | 0.26 | 0.01 | 58 | 1007.6 |
| 20260507135032 | 58 | 90 | 2.0 | 10.0 | 0.00 | 0.26 | 0.01 | 61 | 1007.5 |
| 20260507134532 | 57 | 312 | 3.0 | 10.0 | 0.00 | 0.26 | 0.01 | 58 | 1007.5 |
| 20260507134030 | 57 | 254 | 2.0 | 12.0 | 0.00 | 0.26 | 0.01 | 61 | 1007.5 |
| 20260507133529 | 56 | 285 | 3.0 | 12.0 | 0.00 | 0.26 | 0.01 | 61 | 1007.7 |
| 20260507133026 | 56 | 267 | 3.0 | 9.0 | 0.00 | 0.26 | 0.01 | 62 | 1007.7 |
| 20260507132526 | 56 | 295 | 3.0 | 11.0 | 0.00 | 0.26 | 0.01 | 64 | 1007.8 |
| 20260507132023 | 55 | 261 | 4.0 | 11.0 | 0.00 | 0.26 | 0.01 | 64 | 1008.0 |
| 20260507131530 | 55 | 266 | 5.0 | 10.0 | 0.00 | 0.26 | 0.01 | 64 | 1008.0 |
| 20260507131021 | 55 | 321 | 3.0 | 9.0 | 0.00 | 0.26 | 0.01 | 66 | 1008.1 |
| 20260507130522 | 55 | 297 | 4.0 | 10.0 | 0.00 | 0.26 | 0.01 | 66 | 1008.1 |
| 20260507130018 | 55 | 288 | 4.0 | 11.0 | 0.00 | 0.26 | 0.01 | 67 | 1008.2 |
| 20260507125517 | 54 | 281 | 4.0 | 12.0 | 0.00 | 0.26 | 0.01 | 66 | 1008.1 |
| 20260507125015 | 54 | 263 | 4.0 | 13.0 | 0.00 | 0.26 | 0.01 | 67 | 1008.2 |
| 20260507124515 | 54 | 301 | 3.0 | 13.0 | 0.00 | 0.26 | 0.01 | 68 | 1008.1 |
| 20260507124012 | 54 | 257 | 5.0 | 14.0 | 0.00 | 0.26 | 0.01 | 69 | 1008.1 |
| 20260507123515 | 53 | 26 | 5.0 | 12.0 | 0.00 | 0.26 | 0.01 | 71 | 1008.1 |
| 20260507123013 | 52 | 321 | 1.0 | 12.0 | 0.00 | 0.26 | 0.01 | 76 | 1008.3 |
| 20260507122511 | 52 | 268 | 7.0 | 12.0 | 0.00 | 0.26 | 0.01 | 74 | 1008.2 |
| 20260507122006 | 52 | 254 | 2.0 | 9.0 | 0.00 | 0.26 | 0.01 | 77 | 1008.2 |
| 20260507121506 | 51 | 4 | 2.0 | 8.0 | 0.00 | 0.26 | 0.01 | 79 | 1008.2 |
| 20260507121006 | 51 | 310 | 2.0 | 9.0 | 0.00 | 0.26 | 0.01 | 78 | 1008.2 |
| 20260507120505 | 51 | 331 | 1.0 | 9.0 | 0.00 | 0.26 | 0.01 | 81 | 1008.3 |
| 20260507120006 | 50 | 258 | 2.0 | 8.0 | 0.00 | 0.26 | 0.01 | 80 | 1008.2 |
| 20260507115504 | 50 | 262 | 4.0 | 10.0 | 0.00 | 0.26 | 0.01 | 80 | 1008.2 |
| 20260507115006 | 50 | 310 | 2.0 | 15.0 | 0.00 | 0.26 | 0.01 | 80 | 1008.1 |
| 20260507114506 | 50 | 293 | 5.0 | 15.0 | 0.00 | 0.26 | 0.01 | 81 | 1008.1 |
| 20260507114002 | 49 | 255 | 2.0 | 11.0 | 0.00 | 0.26 | 0.01 | 82 | 1008.1 |
| 20260507113503 | 49 | 281 | 3.0 | 9.0 | 0.00 | 0.26 | 0.01 | 83 | 1008.0 |
| 20260507113101 | 48 | 311 | 4.0 | 8.0 | 0.00 | 0.26 | 0.01 | 82 | 1007.9 |
| 20260507112603 | 48 | 239 | 2.0 | 5.0 | 0.00 | 0.26 | 0.01 | 82 | 1007.9 |
| 20260507112100 | 48 | 325 | 1.0 | 7.0 | 0.00 | 0.26 | 0.01 | 82 | 1007.8 |
| 20260507111602 | 48 | 271 | 1.0 | 7.0 | 0.00 | 0.26 | 0.01 | 83 | 1007.9 |
| 20260507111100 | 48 | 339 | 0.0 | 8.0 | 0.00 | 0.26 | 0.01 | 82 | 1008.0 |
| 20260507110557 | 48 | 231 | 1.0 | 8.0 | 0.00 | 0.26 | 0.01 | 82 | 1007.9 |
| 20260507110100 | 48 | 257 | 4.0 | 9.0 | 0.00 | 0.26 | 0.01 | 82 | 1008.0 |
| 20260507105555 | 48 | 275 | 2.0 | 8.0 | 0.00 | 0.26 | 0.01 | 82 | 1007.6 |
| 20260507105055 | 47 | 322 | 1.0 | 8.0 | 0.00 | 0.26 | 0.01 | 82 | 1007.7 |
| 20260507104554 | 47 | 247 | 2.0 | 4.0 | 0.00 | 0.26 | 0.01 | 83 | 1007.3 |
| 20260507104054 | 47 | 257 | 1.0 | 6.0 | 0.00 | 0.26 | 0.01 | 83 | 1007.6 |
| 20260507103552 | 47 | 307 | 2.0 | 6.0 | 0.00 | 0.26 | 0.01 | 83 | 1007.3 |
| 20260507103052 | 47 | 312 | 2.0 | 8.0 | 0.00 | 0.26 | 0.01 | 83 | 1007.4 |
| 20260507102552 | 47 | 276 | 1.0 | 10.0 | 0.00 | 0.26 | 0.01 | 84 | 1007.3 |
| 20260507102051 | 47 | 248 | 0.0 | 10.0 | 0.00 | 0.26 | 0.01 | 84 | 1007.3 |
| 20260507101553 | 47 | 310 | 0.0 | 8.0 | 0.00 | 0.26 | 0.01 | 84 | 1007.4 |
| 20260507101050 | 47 | 268 | 2.0 | 6.0 | 0.00 | 0.26 | 0.01 | 84 | 1007.3 |
| 20260507100549 | 47 | 312 | 2.0 | 11.0 | 0.00 | 0.26 | 0.01 | 84 | 1007.3 |
| 20260507100048 | 47 | 334 | 4.0 | 13.0 | 0.00 | 0.26 | 0.01 | 84 | 1007.3 |
| 20260507095548 | 47 | 241 | 3.0 | 9.0 | 0.00 | 0.26 | 0.01 | 85 | 1007.3 |
| 20260507095047 | 47 | 272 | 4.0 | 10.0 | 0.00 | 0.26 | 0.01 | 85 | 1007.6 |
| 20260507094547 | 47 | 237 | 4.0 | 10.0 | 0.00 | 0.26 | 0.01 | 86 | 1007.3 |
| 20260507094046 | 47 | 285 | 3.0 | 10.0 | 0.00 | 0.26 | 0.01 | 86 | 1007.3 |
| 20260507093546 | 47 | 236 | 4.0 | 10.0 | 0.00 | 0.26 | 0.01 | 86 | 1007.6 |
| 20260507093049 | 47 | 316 | 3.0 | 9.0 | 0.00 | 0.26 | 0.01 | 87 | 1007.5 |
| 20260507092545 | 47 | 273 | 2.0 | 7.0 | 0.00 | 0.26 | 0.01 | 87 | 1007.4 |
| 20260507092044 | 47 | 254 | 2.0 | 9.0 | 0.00 | 0.26 | 0.01 | 87 | 1007.4 |
| 20260507091547 | 47 | 240 | 1.0 | 7.0 | 0.00 | 0.26 | 0.01 | 88 | 1007.5 |
| 20260507091044 | 47 | 228 | 4.0 | 8.0 | 0.00 | 0.26 | 0.01 | 88 | 1007.6 |
| 20260507090545 | 47 | 245 | 4.0 | 7.0 | 0.00 | 0.26 | 0.01 | 88 | 1007.6 |
| 20260507090042 | 47 | 279 | 2.0 | 5.0 | 0.00 | 0.26 | 0.01 | 88 | 1007.2 |
| 20260507085542 | 47 | 257 | 3.0 | 7.0 | 0.00 | 0.26 | 0.01 | 87 | 1007.3 |
| 20260507085042 | 47 | 258 | 2.0 | 6.0 | 0.00 | 0.26 | 0.01 | 87 | 1007.3 |
| 20260507084553 | 47 | 266 | 1.0 | 7.0 | 0.00 | 0.26 | 0.01 | 87 | 1007.6 |
| 20260507084043 | 47 | 265 | 3.0 | 9.0 | 0.00 | 0.26 | 0.01 | 87 | 1007.4 |
| 20260507083540 | 47 | 250 | 2.0 | 8.0 | 0.00 | 0.26 | 0.01 | 87 | 1007.2 |
| 20260507083039 | 48 | 241 | 2.0 | 7.0 | 0.00 | 0.26 | 0.01 | 86 | 1007.2 |
| 20260507082541 | 48 | 241 | 2.0 | 8.0 | 0.00 | 0.26 | 0.01 | 86 | 1007.0 |
| 20260507082037 | 48 | 259 | 3.0 | 9.0 | 0.00 | 0.26 | 0.01 | 86 | 1007.1 |
| 20260507081540 | 48 | 257 | 3.0 | 9.0 | 0.00 | 0.26 | 0.01 | 86 | 1007.2 |
| 20260507081039 | 49 | 243 | 3.0 | 9.0 | 0.00 | 0.26 | 0.01 | 85 | 1007.1 |
| 20260507080535 | 49 | 280 | 2.0 | 9.0 | 0.00 | 0.26 | 0.01 | 85 | 1006.9 |
| 20260507080036 | 49 | 250 | 3.0 | 9.0 | 0.00 | 0.26 | 0.01 | 85 | 1007.2 |
| 20260507075534 | 49 | 241 | 2.0 | 9.0 | 0.00 | 0.26 | 0.01 | 85 | 1007.2 |
| 20260507075034 | 49 | 260 | 4.0 | 9.0 | 0.00 | 0.26 | 0.01 | 85 | 1007.3 |
| 20260507074533 | 49 | 217 | 3.0 | 12.0 | 0.00 | 0.26 | 0.01 | 85 | 1007.4 |
| 20260507074032 | 49 | 301 | 5.0 | 12.0 | 0.00 | 0.26 | 0.01 | 85 | 1007.2 |
| 20260507073531 | 49 | 254 | 3.0 | 11.0 | 0.00 | 0.26 | 0.01 | 86 | 1006.9 |
| 20260507073031 | 49 | 264 | 4.0 | 10.0 | 0.00 | 0.26 | 0.01 | 86 | 1006.8 |
| 20260507072531 | 49 | 268 | 3.0 | 10.0 | 0.00 | 0.26 | 0.01 | 86 | 1006.9 |
| 20260507072030 | 50 | 261 | 4.0 | 10.0 | 0.00 | 0.26 | 0.01 | 86 | 1006.9 |
| 20260507071529 | 50 | 224 | 4.0 | 9.0 | 0.00 | 0.26 | 0.01 | 87 | 1006.7 |
| 20260507071029 | 50 | 285 | 3.0 | 9.0 | 0.00 | 0.26 | 0.01 | 87 | 1006.8 |
| 20260507070528 | 50 | 303 | 4.0 | 9.0 | 0.00 | 0.26 | 0.01 | 86 | 1007.0 |
| 20260507070031 | 50 | 289 | 3.0 | 8.0 | 0.00 | 0.26 | 0.01 | 86 | 1007.0 |
| 20260507065528 | 50 | 272 | 2.0 | 10.0 | 0.00 | 0.26 | 0.01 | 86 | 1006.8 |
| 20260507065027 | 50 | 222 | 3.0 | 10.0 | 0.00 | 0.26 | 0.01 | 86 | 1006.6 |
| 20260507064527 | 50 | 264 | 2.0 | 9.0 | 0.00 | 0.26 | 0.01 | 86 | 1006.8 |
| 20260507064026 | 50 | 265 | 4.0 | 9.0 | 0.00 | 0.26 | 0.01 | 86 | 1006.7 |
| 20260507063527 | 50 | 241 | 2.0 | 8.0 | 0.00 | 0.26 | 0.01 | 86 | 1006.9 |
| 20260507063024 | 50 | 248 | 2.0 | 8.0 | 0.00 | 0.26 | 0.01 | 86 | 1006.6 |
| 20260507062524 | 50 | 280 | 4.0 | 8.0 | 0.00 | 0.26 | 0.01 | 86 | 1006.6 |
| 20260507062024 | 50 | 272 | 2.0 | 9.0 | 0.00 | 0.26 | 0.01 | 86 | 1006.7 |
| 20260507061524 | 50 | 243 | 3.0 | 9.0 | 0.00 | 0.26 | 0.01 | 86 | 1006.7 |
| 20260507061022 | 50 | 325 | 3.0 | 10.0 | 0.00 | 0.26 | 0.01 | 87 | 1006.7 |
| 20260507060521 | 50 | 254 | 4.0 | 14.0 | 0.00 | 0.26 | 0.01 | 87 | 1006.7 |
| 20260507060021 | 50 | 277 | 5.0 | 14.0 | 0.00 | 0.26 | 0.01 | 88 | 1006.8 |
| 20260507055521 | 50 | 257 | 3.0 | 10.0 | 0.00 | 0.26 | 0.01 | 88 | 1006.9 |
| 20260507055022 | 51 | 281 | 2.0 | 11.0 | 0.00 | 0.26 | 0.01 | 88 | 1007.0 |
| 20260507054527 | 51 | 300 | 5.0 | 11.0 | 0.00 | 0.26 | 0.01 | 88 | 1007.0 |
| 20260507054019 | 51 | 258 | 3.0 | 11.0 | 0.00 | 0.26 | 0.01 | 88 | 1007.1 |
| 20260507053518 | 51 | 244 | 3.0 | 11.0 | 0.00 | 0.26 | 0.01 | 88 | 1007.2 |
| 20260507053018 | 51 | 253 | 3.0 | 7.0 | 0.00 | 0.26 | 0.01 | 88 | 1007.1 |
| 20260507052517 | 51 | 241 | 2.0 | 6.0 | 0.00 | 0.26 | 0.01 | 89 | 1006.8 |
| 20260507052017 | 51 | 251 | 1.0 | 8.0 | 0.00 | 0.26 | 0.01 | 89 | 1007.1 |
| 20260507051517 | 51 | 222 | 3.0 | 8.0 | 0.00 | 0.26 | 0.01 | 89 | 1007.3 |
| 20260507051016 | 51 | 252 | 1.0 | 7.0 | 0.00 | 0.26 | 0.01 | 89 | 1007.1 |
| 20260507050516 | 51 | 238 | 3.0 | 8.0 | 0.00 | 0.26 | 0.01 | 89 | 1006.9 |
| 20260507050021 | 51 | 245 | 2.0 | 9.0 | 0.01 | 0.26 | 0.01 | 89 | 1006.9 |
| 20260507045516 | 51 | 275 | 3.0 | 13.0 | 0.01 | 0.26 | 0.01 | 89 | 1006.9 |
| 20260507045015 | 51 | 249 | 3.0 | 13.0 | 0.01 | 0.26 | 0.01 | 90 | 1006.9 |
| 20260507044515 | 51 | 287 | 5.0 | 13.0 | 0.01 | 0.26 | 0.01 | 90 | 1006.8 |
| 20260507044013 | 52 | 253 | 3.0 | 9.0 | 0.01 | 0.26 | 0.01 | 90 | 1006.8 |
| 20260507043513 | 52 | 261 | 3.0 | 9.0 | 0.01 | 0.26 | 0.01 | 90 | 1006.8 |
| 20260507043020 | 52 | 291 | 3.0 | 9.0 | 0.01 | 0.26 | 0.01 | 90 | 1006.9 |
| 20260507042510 | 52 | 309 | 2.0 | 13.0 | 0.01 | 0.26 | 0.01 | 90 | 1007.0 |
| 20260507042011 | 52 | 257 | 5.0 | 13.0 | 0.01 | 0.26 | 0.01 | 90 | 1007.1 |
| 20260507041508 | 53 | 256 | 4.0 | 12.0 | 0.01 | 0.26 | 0.01 | 90 | 1007.1 |
| 20260507041007 | 53 | 226 | 3.0 | 12.0 | 0.01 | 0.26 | 0.01 | 90 | 1007.3 |
| 20260507040507 | 54 | 258 | 4.0 | 12.0 | 0.00 | 0.25 | 0.00 | 90 | 1007.2 |
| 20260507040005 | 54 | 303 | 4.0 | 14.0 | 0.00 | 0.25 | 0.00 | 90 | 1007.0 |
| 20260507035503 | 55 | 359 | 4.0 | 14.0 | 0.00 | 0.25 | 0.25 | 91 | 1006.8 |
| 20260507035001 | 56 | 283 | 3.0 | 9.0 | 0.00 | 0.25 | 0.25 | 91 | 1006.6 |
| 20260507034601 | 56 | 347 | 2.0 | 9.0 | 0.00 | 0.25 | 0.25 | 91 | 1006.4 |
| 20260507034059 | 56 | 253 | 2.0 | 11.0 | 0.00 | 0.25 | 0.25 | 91 | 1006.3 |
| 20260507033559 | 56 | 231 | 4.0 | 13.0 | 0.00 | 0.25 | 0.25 | 92 | 1006.1 |
| 20260507033102 | 57 | 285 | 4.0 | 13.0 | 0.00 | 0.25 | 0.25 | 91 | 1006.0 |
| 20260507032556 | 57 | 359 | 3.0 | 11.0 | 0.00 | 0.25 | 0.25 | 92 | 1006.0 |
| 20260507032055 | 57 | 359 | 4.0 | 19.0 | 0.00 | 0.25 | 0.25 | 92 | 1005.8 |
| 20260507031555 | 57 | 264 | 7.0 | 19.0 | 0.00 | 0.25 | 0.25 | 92 | 1005.9 |
| 20260507031053 | 58 | 241 | 7.0 | 14.0 | 0.00 | 0.25 | 0.25 | 92 | 1005.9 |
| 20260507030557 | 58 | 253 | 6.0 | 13.0 | 0.00 | 0.25 | 0.25 | 92 | 1005.8 |
| 20260507030052 | 59 | 241 | 3.0 | 10.0 | 0.00 | 0.25 | 0.25 | 92 | 1005.8 |
| 20260507025551 | 58 | 237 | 3.0 | 10.0 | 0.00 | 0.25 | 0.25 | 92 | 1005.6 |
| 20260507025051 | 58 | 225 | 3.0 | 9.0 | 0.00 | 0.25 | 0.25 | 92 | 1005.6 |
| 20260507024604 | 58 | 225 | 3.0 | 9.0 | 0.00 | 0.25 | 0.25 | 92 | 1005.6 |
| 20260507024053 | 58 | 195 | 4.0 | 9.0 | 0.00 | 0.25 | 0.25 | 92 | 1005.5 |
| 20260507023554 | 58 | 235 | 1.0 | 9.0 | 0.00 | 0.25 | 0.25 | 92 | 1005.5 |
| 20260507023052 | 59 | 218 | 3.0 | 8.0 | 0.00 | 0.25 | 0.25 | 92 | 1005.5 |
| 20260507022555 | 58 | 233 | 3.0 | 8.0 | 0.00 | 0.25 | 0.25 | 92 | 1005.5 |
| 20260507022049 | 58 | 214 | 2.0 | 7.0 | 0.00 | 0.25 | 0.25 | 92 | 1005.3 |
| 20260507021549 | 58 | 237 | 4.0 | 11.0 | 0.00 | 0.25 | 0.25 | 92 | 1005.3 |
| 20260507021048 | 58 | 226 | 3.0 | 11.0 | 0.00 | 0.25 | 0.25 | 92 | 1005.3 |
| 20260507020548 | 58 | 224 | 4.0 | 9.0 | 0.00 | 0.25 | 0.25 | 92 | 1005.3 |
| 20260507020106 | 58 | 176 | 2.0 | 10.0 | 0.00 | 0.25 | 0.25 | 92 | 1005.2 |
| 20260507015547 | 58 | 164 | 1.0 | 10.0 | 0.00 | 0.25 | 0.25 | 92 | 1005.4 |
| 20260507015047 | 58 | 200 | 3.0 | 10.0 | 0.00 | 0.25 | 0.25 | 92 | 1005.4 |
| 20260507014552 | 58 | 196 | 2.0 | 9.0 | 0.00 | 0.25 | 0.25 | 92 | 1005.5 |
| 20260507014046 | 58 | 226 | 3.0 | 8.0 | 0.00 | 0.25 | 0.25 | 92 | 1005.5 |
| 20260507013546 | 58 | 227 | 3.0 | 8.0 | 0.00 | 0.25 | 0.25 | 92 | 1005.4 |
| 20260507013052 | 58 | 188 | 3.0 | 14.0 | 0.00 | 0.25 | 0.25 | 92 | 1005.5 |
| 20260507012542 | 59 | 239 | 3.0 | 14.0 | 0.00 | 0.25 | 0.25 | 92 | 1005.6 |
| 20260507012042 | 59 | 149 | 4.0 | 8.0 | 0.00 | 0.25 | 0.25 | 92 | 1005.5 |
| 20260507011542 | 59 | 193 | 3.0 | 10.0 | 0.00 | 0.25 | 0.25 | 92 | 1005.6 |
| 20260507011042 | 59 | 205 | 3.0 | 10.0 | 0.00 | 0.25 | 0.25 | 92 | 1005.7 |
| 20260507010541 | 59 | 234 | 1.0 | 10.0 | 0.00 | 0.25 | 0.25 | 92 | 1005.6 |
| 20260507010042 | 59 | 188 | 1.0 | 7.0 | 0.00 | 0.25 | 0.25 | 92 | 1005.6 |
| 20260507005541 | 59 | 216 | 3.0 | 11.0 | 0.00 | 0.25 | 0.25 | 92 | 1005.7 |
| 20260507005043 | 59 | 159 | 4.0 | 11.0 | 0.00 | 0.25 | 0.25 | 92 | 1005.6 |
| 20260507004551 | 59 | 172 | 3.0 | 14.0 | 0.00 | 0.25 | 0.25 | 92 | 1005.6 |
| 20260507004041 | 59 | 162 | 4.0 | 9.0 | 0.00 | 0.25 | 0.25 | 92 | 1005.5 |
| 20260507003540 | 59 | 149 | 2.0 | 12.0 | 0.00 | 0.25 | 0.25 | 92 | 1005.3 |
| 20260507003044 | 59 | 199 | 4.0 | 12.0 | 0.00 | 0.25 | 0.25 | 92 | 1005.5 |
| 20260507002538 | 59 | 215 | 4.0 | 10.0 | 0.00 | 0.25 | 0.25 | 92 | 1005.5 |
| 20260507002037 | 59 | 187 | 2.0 | 8.0 | 0.01 | 0.25 | 0.25 | 92 | 1005.6 |
| 20260507001544 | 59 | 213 | 2.0 | 11.0 | 0.03 | 0.25 | 0.25 | 92 | 1005.5 |
| 20260507001036 | 59 | 233 | 4.0 | 11.0 | 0.05 | 0.25 | 0.25 | 92 | 1005.4 |
| 20260507000536 | 59 | 222 | 3.0 | 10.0 | 0.06 | 0.25 | 0.25 | 92 | 1005.4 |
| 20260507000036 | 59 | 167 | 2.0 | 10.0 | 0.06 | 0.25 | 0.25 | 91 | 1005.4 |
| 20260506235535 | 59 | 234 | 4.0 | 9.0 | 0.06 | 0.25 | 0.25 | 91 | 1005.2 |
| 20260506235035 | 59 | 172 | 2.0 | 9.0 | 0.07 | 0.25 | 0.25 | 91 | 1005.2 |
| 20260506234538 | 59 | 161 | 4.0 | 10.0 | 0.08 | 0.25 | 0.25 | 91 | 1005.2 |
| 20260506234034 | 59 | 218 | 4.0 | 10.0 | 0.09 | 0.25 | 0.25 | 91 | 1005.1 |
| 20260506233534 | 59 | 135 | 3.0 | 9.0 | 0.09 | 0.25 | 0.25 | 91 | 1005.2 |
| 20260506233034 | 59 | 206 | 1.0 | 14.0 | 0.10 | 0.25 | 0.25 | 91 | 1005.2 |
| 20260506232532 | 59 | 170 | 4.0 | 15.0 | 0.10 | 0.25 | 0.25 | 91 | 1005.3 |
| 20260506232033 | 59 | 242 | 3.0 | 11.0 | 0.09 | 0.24 | 0.24 | 91 | 1005.4 |
| 20260506231531 | 59 | 201 | 1.0 | 11.0 | 0.08 | 0.22 | 0.22 | 91 | 1005.4 |
| 20260506231031 | 59 | 197 | 1.0 | 11.0 | 0.06 | 0.20 | 0.20 | 91 | 1005.4 |
| 20260506230529 | 59 | 242 | 3.0 | 10.0 | 0.06 | 0.19 | 0.19 | 91 | 1005.6 |
| 20260506230029 | 59 | 193 | 3.0 | 10.0 | 0.06 | 0.19 | 0.19 | 91 | 1005.7 |
| 20260506225529 | 59 | 199 | 2.0 | 10.0 | 0.06 | 0.18 | 0.18 | 91 | 1005.6 |
| 20260506225029 | 59 | 183 | 3.0 | 10.0 | 0.07 | 0.18 | 0.18 | 91 | 1005.6 |
| 20260506224533 | 59 | 206 | 2.0 | 7.0 | 0.05 | 0.16 | 0.16 | 91 | 1005.5 |
| 20260506224029 | 59 | 175 | 3.0 | 13.0 | 0.05 | 0.16 | 0.16 | 90 | 1005.5 |
| 20260506223527 | 59 | 179 | 4.0 | 12.0 | 0.05 | 0.16 | 0.16 | 90 | 1005.6 |
| 20260506223036 | 59 | 187 | 3.0 | 12.0 | 0.04 | 0.15 | 0.15 | 90 | 1005.6 |
| 20260506222527 | 59 | 161 | 3.0 | 9.0 | 0.04 | 0.15 | 0.15 | 90 | 1005.7 |
| 20260506222029 | 60 | 183 | 2.0 | 9.0 | 0.04 | 0.15 | 0.15 | 90 | 1005.6 |
| 20260506221525 | 60 | 198 | 3.0 | 6.0 | 0.03 | 0.14 | 0.14 | 90 | 1005.8 |
| 20260506221024 | 60 | 114 | 1.0 | 6.0 | 0.03 | 0.14 | 0.14 | 90 | 1005.7 |
| 20260506220524 | 60 | 201 | 0.0 | 5.0 | 0.03 | 0.13 | 0.13 | 90 | 1005.8 |
| 20260506220025 | 60 | 158 | 1.0 | 7.0 | 0.02 | 0.12 | 0.12 | 90 | 1005.9 |
| 20260506215523 | 60 | 186 | 1.0 | 7.0 | 0.01 | 0.11 | 0.11 | 90 | 1006.1 |
| 20260506215029 | 60 | 180 | 1.0 | 8.0 | 0.02 | 0.11 | 0.11 | 90 | 1005.9 |
| 20260506214536 | 60 | 208 | 2.0 | 8.0 | 0.02 | 0.11 | 0.11 | 90 | 1005.8 |
| 20260506214023 | 60 | 189 | 3.0 | 12.0 | 0.02 | 0.11 | 0.11 | 90 | 1005.9 |
| 20260506213526 | 60 | 234 | 4.0 | 12.0 | 0.02 | 0.11 | 0.11 | 90 | 1006.0 |
| 20260506213023 | 60 | 183 | 2.0 | 9.0 | 0.03 | 0.11 | 0.11 | 89 | 1006.0 |
| 20260506212521 | 60 | 287 | 2.0 | 8.0 | 0.03 | 0.11 | 0.11 | 89 | 1006.2 |
| 20260506212020 | 60 | 191 | 2.0 | 11.0 | 0.04 | 0.11 | 0.11 | 89 | 1006.2 |
| 20260506211520 | 60 | 182 | 5.0 | 11.0 | 0.04 | 0.11 | 0.11 | 89 | 1006.2 |
| 20260506211019 | 60 | 147 | 3.0 | 9.0 | 0.05 | 0.11 | 0.11 | 89 | 1006.3 |
| 20260506210518 | 60 | 118 | 2.0 | 8.0 | 0.04 | 0.10 | 0.10 | 89 | 1006.4 |
| 20260506210021 | 60 | 210 | 3.0 | 8.0 | 0.05 | 0.10 | 0.10 | 89 | 1006.4 |
| 20260506205518 | 60 | 164 | 3.0 | 9.0 | 0.05 | 0.10 | 0.10 | 89 | 1006.5 |
| 20260506205018 | 61 | 191 | 3.0 | 14.0 | 0.04 | 0.09 | 0.09 | 89 | 1006.5 |
| 20260506204517 | 61 | 220 | 5.0 | 15.0 | 0.04 | 0.09 | 0.09 | 88 | 1006.6 |
| 20260506204016 | 61 | 237 | 5.0 | 15.0 | 0.04 | 0.09 | 0.09 | 88 | 1006.4 |
| 20260506203516 | 61 | 245 | 2.0 | 15.0 | 0.03 | 0.08 | 0.08 | 88 | 1006.5 |
| 20260506203019 | 62 | 258 | 2.0 | 11.0 | 0.04 | 0.08 | 0.08 | 87 | 1006.5 |
| 20260506202515 | 62 | 140 | 1.0 | 8.0 | 0.04 | 0.08 | 0.08 | 88 | 1006.4 |
| 20260506202014 | 62 | 175 | 2.0 | 9.0 | 0.04 | 0.07 | 0.07 | 87 | 1006.4 |
| 20260506201515 | 62 | 167 | 1.0 | 9.0 | 0.04 | 0.07 | 0.07 | 87 | 1006.4 |
| 20260506201019 | 62 | 198 | 4.0 | 11.0 | 0.04 | 0.06 | 0.06 | 87 | 1006.5 |
| 20260506200513 | 62 | 231 | 5.0 | 11.0 | 0.04 | 0.06 | 0.06 | 87 | 1006.4 |
| 20260506200013 | 62 | 232 | 2.0 | 7.0 | 0.04 | 0.05 | 0.05 | 86 | 1006.4 |
| 20260506195513 | 62 | 199 | 2.0 | 7.0 | 0.04 | 0.05 | 0.05 | 86 | 1006.4 |
| 20260506195013 | 63 | 218 | 3.0 | 10.0 | 0.04 | 0.05 | 0.05 | 86 | 1006.5 |
| 20260506194513 | 63 | 206 | 3.0 | 10.0 | 0.04 | 0.05 | 0.05 | 85 | 1006.3 |
| 20260506194017 | 63 | 191 | 3.0 | 6.0 | 0.05 | 0.05 | 0.05 | 84 | 1006.4 |
| 20260506193512 | 64 | 208 | 1.0 | 7.0 | 0.05 | 0.05 | 0.05 | 84 | 1006.6 |
| 20260506193014 | 64 | 185 | 1.0 | 7.0 | 0.04 | 0.04 | 0.04 | 83 | 1006.6 |
| 20260506192511 | 65 | 190 | 1.0 | 9.0 | 0.04 | 0.04 | 0.04 | 82 | 1006.2 |
| 20260506192010 | 65 | 269 | 1.0 | 9.0 | 0.03 | 0.03 | 0.03 | 81 | 1006.5 |